Beaver, WV

4:21 PM EST on February 27, 2017 (GMT -0500)
Raleigh County Memorial

Weather History for KBKW - December, 2011

Change the Weather History Date:

Wednesday, December 7, 2011

  Actual Average Record
Temperature  
Mean Temperature 37 °F 36 °F  
Max Temperature 47 °F 44 °F 74 °F (1951)
Min Temperature 26 °F 28 °F -1 °F (1977)
Degree Days  
Heating Degree Days 28 29  
Month to date heating degree days 150 194  
Since 1 July heating degree days 1124 1334  
Cooling Degree Days 0 0  
Month to date cooling degree days 0 0  
Year to date cooling degree days 865 557  
Moisture  
Dew Point 35 °F    
Average Humidity 91    
Maximum Humidity 96    
Minimum Humidity 85    
Precipitation  
Precipitation 1.66 in 0.10 in 1.66 in (2011)
Month to date precipitation 2.24 0.69  
Year to date precipitation 40.38 38.88  
Snow  
Snow 4.70 in - - ()
Month to date snowfall 4.7  
Since 1 September snowfall 6.1  
Snow Depth 0.00 in    
Sea Level Pressure  
Sea Level Pressure 29.87 in    
Wind  
Wind Speed 9 mph (NNW)    
Max Wind Speed 22 mph    
Max Gust Speed 31 mph    
Visibility 4 miles    
Events Fog , Rain , Snow    
T = Trace of Precipitation, MM = Missing Value Source: NWS Daily Summary

Daily Weather History Graph

Daily Weather History Graph

Search for Another Location

Airport or City:

Trip Planner

Search our weather history database for the weather conditions in past years. The results will help you decide how hot, cold, wet, or windy it might be!

Date:

Astronomy

Dec. 07, 2011 Rise Set
Actual Time 7:26 AM EST 5:05 PM EST
Civil Twilight 6:57 AM EST 5:34 PM EST
Nautical Twilight 6:24 AM EST 6:07 PM EST
Astronomical Twilight 5:52 AM EST 6:39 PM EST
Moon 3:04 PM EST (12/7) 4:41 AM EST (12/7)
Length of Visible Light 10h 37m
Length of Day
9h 39m
Waxing Gibbous, 92% of the Moon is Illuminated
Dec 7
Waxing Gibbous
Dec 10
Full
Dec 17
Last Quarter
Dec 24
New
Jan 1
First Quarter

Hourly Weather History & Observations

Time (EST) Temp. Windchill Dew Point Humidity Pressure Visibility Wind Dir Wind Speed Gust Speed Precip Events Conditions
12:13 AM 46.4 °F 43.5 °F 44.6 °F 93% 29.99 in 1.0 mi NNW 5.8 mph - 0.04 in Rain Light Rain
12:24 AM 46.4 °F 42.4 °F 44.6 °F 93% 29.97 in 3.0 mi North 8.1 mph - 0.06 in Rain Rain
12:51 AM 45.0 °F 41.8 °F 44.1 °F 97% 29.95 in 3.0 mi North 5.8 mph - 0.10 in Rain Light Rain
1:51 AM 44.6 °F 42.2 °F 42.8 °F 93% 29.93 in 3.0 mi North 4.6 mph - N/A Rain Light Rain
2:14 AM 44.6 °F 42.2 °F 42.8 °F 93% 29.91 in 8.0 mi NNE 4.6 mph - N/A   Overcast
2:51 AM 44.1 °F 41.5 °F 43.0 °F 96% 29.89 in 4.0 mi ENE 4.6 mph - 0.08 in Rain Rain
3:06 AM 44.6 °F 42.2 °F 42.8 °F 93% 29.88 in 10.0 mi ENE 4.6 mph - 0.02 in Rain Light Rain
3:51 AM 44.1 °F 42.5 °F 43.0 °F 96% 29.86 in 10.0 mi ESE 3.5 mph - 0.02 in Rain Light Rain
4:04 AM 44.6 °F - 42.8 °F 93% 29.87 in 7.0 mi Calm Calm - 0.02 in Rain Light Rain
4:20 AM 44.6 °F 43.1 °F 42.8 °F 93% 29.87 in 4.0 mi NW 3.5 mph - 0.06 in Rain Rain
4:35 AM 44.6 °F 43.1 °F 42.8 °F 93% 29.89 in 2.0 mi West 3.5 mph - 0.10 in Rain Rain
4:39 AM 44.6 °F - 44.6 °F 100% 29.88 in 1.0 mi Calm Calm - 0.12 in Rain Rain
4:43 AM 44.6 °F 43.1 °F 44.6 °F 100% 29.87 in 1.0 mi North 3.5 mph - 0.12 in Rain Rain
4:51 AM 44.1 °F - 43.0 °F 96% 29.86 in 3.0 mi Calm Calm - 0.14 in Rain Rain
5:15 AM 44.6 °F 43.1 °F 42.8 °F 93% 29.85 in 10.0 mi NNW 3.5 mph - 0.00 in Rain Light Rain
5:38 AM 44.6 °F 43.1 °F 42.8 °F 93% 29.87 in 2.5 mi WNW 3.5 mph - 0.05 in Rain Rain
5:40 AM 44.6 °F 43.1 °F 42.8 °F 93% 29.86 in 3.0 mi NW 3.5 mph - 0.05 in Rain Rain
5:51 AM 44.1 °F 42.5 °F 43.0 °F 96% 29.86 in 5.0 mi West 3.5 mph - 0.08 in Rain Light Rain
6:14 AM 44.6 °F - 42.8 °F 93% 29.84 in 5.0 mi Calm Calm - 0.02 in Rain Light Rain
6:22 AM 44.6 °F - 42.8 °F 93% 29.85 in 5.0 mi Calm Calm - 0.02 in Rain Light Rain
6:29 AM 44.6 °F - 42.8 °F 93% 29.85 in 5.0 mi Calm Calm - 0.03 in Rain Rain
6:36 AM 44.6 °F - 42.8 °F 93% 29.85 in 5.0 mi Calm Calm - 0.04 in Rain Light Rain
6:51 AM 44.1 °F 42.5 °F 43.0 °F 96% 29.83 in 4.0 mi North 3.5 mph - 0.06 in Rain Rain
7:12 AM 44.6 °F - 42.8 °F 93% 29.84 in 1.8 mi Calm Calm - 0.04 in Rain Rain
7:19 AM 44.6 °F - 42.8 °F 93% 29.85 in 2.5 mi Calm Calm - 0.06 in Rain Rain
7:27 AM 44.6 °F 42.2 °F 42.8 °F 93% 29.85 in 3.0 mi NNW 4.6 mph - 0.07 in Rain Rain
7:47 AM 44.6 °F 41.4 °F 42.8 °F 93% 29.85 in 4.0 mi NNW 5.8 mph - 0.11 in Rain Light Rain
7:51 AM 44.1 °F 40.8 °F 42.1 °F 93% 29.83 in 3.0 mi NNW 5.8 mph - 0.11 in Rain Rain
7:59 AM 44.6 °F 40.7 °F 42.8 °F 93% 29.86 in 2.5 mi NW 6.9 mph - 0.04 in Rain Rain
8:10 AM 44.6 °F 42.2 °F 42.8 °F 93% 29.84 in 1.8 mi North 4.6 mph - 0.08 in Rain Heavy Rain
8:20 AM 44.6 °F 42.2 °F 42.8 °F 93% 29.83 in 3.0 mi North 4.6 mph - 0.11 in Rain Light Rain
8:51 AM 42.8 °F 40.1 °F 41.0 °F 93% 29.82 in 4.0 mi NNE 4.6 mph - N/A Rain Light Rain
9:51 AM 41.0 °F 34.7 °F 39.9 °F 96% 29.83 in 3.0 mi North 10.4 mph - 0.08 in Rain Rain
10:39 AM 39.2 °F 35.0 °F 37.4 °F 93% 29.82 in 4.0 mi NNE 5.8 mph - 0.10 in Rain Rain
10:51 AM 39.9 °F 35.8 °F 37.9 °F 93% 29.84 in 5.0 mi North 5.8 mph - 0.12 in Rain Light Rain
11:15 AM 39.2 °F 34.2 °F 37.4 °F 93% 29.81 in 3.0 mi NNW 6.9 mph - 0.07 in Rain Rain
11:51 AM 39.0 °F 34.0 °F 37.0 °F 93% 29.81 in 7.0 mi North 6.9 mph - 0.12 in Rain Rain
12:51 PM 37.9 °F 32.1 °F 37.0 °F 97% 29.78 in 4.0 mi NNW 8.1 mph - 0.09 in Rain Rain
1:51 PM 36.0 °F 28.0 °F 34.0 °F 93% 29.75 in 4.0 mi NNW 11.5 mph - 0.12 in Rain Rain
2:00 PM 35.6 °F 27.5 °F 33.8 °F 93% 29.72 in 1.8 mi NNW 11.5 mph - 0.02 in Snow Light Snow
2:14 PM 33.8 °F 27.0 °F 32.0 °F 93% 29.71 in 0.8 mi NNW 8.1 mph - 0.06 in Snow Light Snow
2:30 PM 33.8 °F 29.6 °F 32.0 °F 93% 29.71 in 1.5 mi NNW 4.6 mph - 0.07 in Snow Light Snow
2:36 PM 33.8 °F 29.6 °F 32.0 °F 93% 29.70 in 0.8 mi NNW 4.6 mph - 0.08 in Snow Light Snow
2:51 PM 33.1 °F 26.1 °F 32.0 °F 96% 29.75 in 0.5 mi NW 8.1 mph - 0.09 in Fog , Snow Light Snow
2:59 PM 33.8 °F 26.4 °F 32.0 °F 93% 29.71 in 0.8 mi NNW 9.2 mph - 0.00 in Snow Light Snow
3:06 PM 33.8 °F 25.8 °F 32.0 °F 93% 29.72 in 1.8 mi NNW 10.4 mph - 0.00 in Snow Light Snow
3:28 PM 33.8 °F 25.8 °F 30.2 °F 87% 29.74 in 0.5 mi NW 10.4 mph - 0.03 in Fog , Snow Snow
3:44 PM 32.0 °F 24.8 °F 30.2 °F 93% 29.75 in 0.2 mi NNW 8.1 mph - 0.05 in Fog , Snow Heavy Snow
3:51 PM 32.0 °F 24.2 °F 30.9 °F 96% 29.80 in 0.2 mi NNW 9.2 mph - 0.06 in Fog , Snow Heavy Snow
4:51 PM 32.0 °F 23.0 °F 30.2 °F 93% 29.78 in 0.5 mi NW 11.5 mph - N/A Fog , Snow Snow
5:51 PM 32.0 °F 21.6 °F 30.0 °F 92% 29.86 in 1.0 mi NNW 15.0 mph 20.7 mph 0.07 in Snow Light Snow
6:21 PM 32.0 °F 22.1 °F 30.2 °F 93% 29.84 in 1.5 mi NNW 13.8 mph 17.3 mph 0.01 in Snow Light Snow
6:38 PM 30.2 °F 18.9 °F 28.4 °F 93% 29.86 in 1.2 mi NNW 16.1 mph 23.0 mph 0.01 in Snow Light Snow
6:51 PM 30.9 °F 21.7 °F 28.9 °F 92% 29.92 in 0.8 mi NW 11.5 mph 19.6 mph 0.02 in Snow Light Snow
7:05 PM 30.2 °F 20.2 °F 28.4 °F 93% 29.86 in 1.0 mi NNW 12.7 mph 20.7 mph 0.01 in Snow Light Snow
7:26 PM 30.2 °F 21.9 °F 28.4 °F 93% 29.87 in 3.0 mi NW 9.2 mph - 0.01 in Snow Light Snow
7:51 PM 30.9 °F 22.2 °F 28.9 °F 92% 29.94 in 2.5 mi NW 10.4 mph - 0.01 in Snow Light Snow
8:15 PM 30.2 °F 19.8 °F 28.4 °F 93% 29.90 in 2.5 mi NW 13.8 mph - 0.00 in Snow Light Snow
8:29 PM 30.2 °F 18.5 °F 28.4 °F 93% 29.92 in 4.0 mi WNW 17.3 mph 26.5 mph 0.00 in   Overcast
8:41 PM 30.2 °F 18.9 °F 26.6 °F 86% 29.91 in 2.5 mi NW 16.1 mph 27.6 mph 0.00 in Snow Light Snow
8:51 PM 30.0 °F 17.9 °F 27.0 °F 88% 29.98 in 2.5 mi NW 18.4 mph 25.3 mph 0.00 in Snow Light Snow
9:06 PM 30.2 °F 17.8 °F 26.6 °F 86% 29.93 in 4.0 mi NW 19.6 mph 27.6 mph 0.00 in   Overcast
9:19 PM 28.4 °F 16.6 °F 26.6 °F 93% 29.95 in 4.0 mi WNW 16.1 mph 25.3 mph N/A Snow Light Snow
9:26 PM 28.4 °F 16.6 °F 26.6 °F 93% 29.96 in 2.5 mi WNW 16.1 mph 25.3 mph 0.00 in Snow Light Snow
9:44 PM 28.4 °F 16.6 °F 24.8 °F 86% 29.97 in 3.0 mi NW 16.1 mph 25.3 mph 0.00 in Snow Light Snow
9:51 PM 28.0 °F 16.1 °F 25.0 °F 88% 30.04 in 3.0 mi NW 16.1 mph 31.1 mph 0.00 in Snow Light Snow
10:10 PM 28.4 °F 17.0 °F 24.8 °F 86% 29.99 in 1.8 mi NW 15.0 mph - 0.00 in Snow Light Snow
10:30 PM 26.6 °F 13.4 °F 24.8 °F 93% 30.00 in 2.0 mi WNW 18.4 mph 26.5 mph 0.01 in Snow Light Snow
10:42 PM 26.6 °F 14.3 °F 23.0 °F 86% 30.01 in 7.0 mi NW 16.1 mph 28.8 mph 0.01 in   Overcast
10:51 PM 27.0 °F 13.9 °F 24.1 °F 89% 30.09 in 10.0 mi NW 18.4 mph 25.3 mph 0.01 in   Overcast
11:28 PM 26.6 °F 13.4 °F 21.2 °F 80% 30.03 in 10.0 mi NW 18.4 mph 28.8 mph 0.00 in   Overcast
11:38 PM 26.6 °F 15.2 °F 21.2 °F 80% 30.04 in 10.0 mi NW 13.8 mph - 0.00 in   Overcast
11:51 PM 26.1 °F 13.1 °F 21.0 °F 81% 30.12 in 10.0 mi NW 17.3 mph 24.2 mph 0.00 in   Overcast